Location: Betzi
(47.2343°N, 9.5260°E)
Time: 23:23:25
(UTC+00:00)

Cosmos 2237 Rocket - Pass Details

Date: 27 May 2022
Orbit: 833 x 851 km, 71.0° (Epoch: 26 June)

Event Time Altitude Azimuth Distance (km) Brightness Sun altitude
Exits shadow 00:56:58 25° 238° (WSW) 1,655 3.3 -18.0°
Maximum altitude 01:00:07 51° 303° (WNW) 1,058 2.7 -17.8°
Drops below altitude 10° 01:05:41 10° 19° (NNE) 2,487 5.9 -17.4°
Sets 01:08:14 0° 25° (NNE) 3,428 7.2 -17.2°
